Louisa, VA

4:07 PM EST on November 14, 2019 (GMT -0500)
Louisa County-Freeman

Weather History for KLKU - September, 2019

Change the Weather History Date:

Sunday, September 22, 2019

  Actual Average (KOMH) Record (KOMH)
Temperature  
Mean Temperature 75 °F -  
Max Temperature 89 °F 76 °F 96 °F (2010)
Min Temperature 61 °F 55 °F 38 °F (1962)
Cooling Degree Days 10    
Growing Degree Days 25 (Base 50)    
Moisture  
Dew Point 64 °F    
Average Humidity 71    
Maximum Humidity 97    
Minimum Humidity 42    
Precipitation  
Precipitation 0.00 in - - ()
Sea Level Pressure  
Sea Level Pressure 30.17 in    
Wind  
Wind Speed 2 mph ()    
Max Wind Speed 7 mph    
Max Gust Speed -    
Visibility 9.8 miles    
Events      
Averages and records for this station are not official NWS values.
T = Trace of Precipitation, MM = Missing Value Source: Averaged Metar Reports

Daily Weather History Graph

Daily Weather History Graph

Search for Another Location

Airport or City:

Astronomy

Sep. 22, 2019 Rise Set
Actual Time 6:59 AM EDT 7:09 PM EDT
Civil Twilight 6:33 AM EDT 7:35 PM EDT
Nautical Twilight 6:02 AM EDT 8:06 PM EDT
Astronomical Twilight 5:31 AM EDT 8:37 PM EDT
Moon No Moon Rise 2:56 PM EDT (9/22)
Length of Visible Light 13h 02m
Length of Day
12h 09m
Last Quarter, 44% of the Moon is Illuminated
Sep 22
Last Quarter
Sep 28
New
Oct 5
First Quarter
Oct 13
Full
Oct 21
Last Quarter

Hourly Weather History & Observations

Time (EDT) Temp. Heat Index Dew Point Humidity Pressure Visibility Wind Dir Wind Speed Gust Speed Precip Events Conditions
12:15 AM 70.7 °F - 63.3 °F 77% 30.24 in 10.0 mi SSE 4.6 mph - N/A   Clear
12:35 AM 70.0 °F - 63.3 °F 79% 30.24 in 10.0 mi South 4.6 mph - N/A   Clear
12:55 AM 69.6 °F - 63.3 °F 80% 30.24 in 10.0 mi SSE 3.5 mph - N/A   Scattered Clouds
1:15 AM 69.8 °F - 63.3 °F 80% 30.24 in 10.0 mi Calm Calm - N/A   Mostly Cloudy
1:35 AM 68.0 °F - 63.1 °F 84% 30.24 in 10.0 mi Calm Calm - N/A   Mostly Cloudy
1:55 AM 66.4 °F - 63.1 °F 89% 30.24 in 10.0 mi West 3.5 mph - N/A   Mostly Cloudy
2:15 AM 65.1 °F - 62.6 °F 92% 30.23 in 10.0 mi Calm Calm - N/A   Mostly Cloudy
2:35 AM 64.6 °F - 62.4 °F 93% 30.23 in 10.0 mi Calm Calm - N/A   Mostly Cloudy
2:55 AM 64.2 °F - 62.4 °F 94% 30.22 in 10.0 mi Calm Calm - N/A   Overcast
3:15 AM 65.3 °F - 63.0 °F 92% 30.22 in 10.0 mi Calm Calm - N/A   Overcast
3:35 AM 64.9 °F - 63.1 °F 94% 30.22 in 10.0 mi Calm Calm - N/A   Overcast
3:55 AM 65.1 °F - 63.0 °F 93% 30.21 in 10.0 mi Calm Calm - N/A   Overcast
4:15 AM 65.5 °F - 63.3 °F 93% 30.21 in 10.0 mi Calm Calm - N/A   Overcast
4:35 AM 65.7 °F - 63.5 °F 93% 30.21 in 10.0 mi Calm Calm - N/A   Overcast
4:55 AM 66.2 °F - 63.1 °F 90% 30.20 in 10.0 mi South 3.5 mph - N/A   Overcast
5:15 AM 66.4 °F - 63.0 °F 89% 30.20 in 10.0 mi South 3.5 mph - N/A   Scattered Clouds
5:35 AM 66.2 °F - 62.8 °F 89% 30.20 in 10.0 mi South 4.6 mph - N/A   Clear
6:15 AM 65.8 °F - 62.6 °F 89% 30.20 in 10.0 mi SSW 3.5 mph - N/A   Clear
6:35 AM 64.8 °F - 62.2 °F 92% 30.21 in 10.0 mi Calm Calm - N/A   Clear
6:55 AM 64.4 °F - 62.1 °F 92% 30.21 in 10.0 mi West 3.5 mph - N/A   Clear
7:15 AM 62.2 °F - 61.3 °F 97% 30.22 in 7.0 mi Calm Calm - N/A   Clear
7:35 AM 61.7 °F - 60.8 °F 97% 30.22 in 7.0 mi Calm Calm - N/A   Clear
7:55 AM 62.1 °F - 61.3 °F 97% 30.22 in 7.0 mi Calm Calm - N/A   Clear
8:15 AM 65.7 °F - 63.1 °F 92% 30.22 in 10.0 mi Calm Calm - N/A   Clear
8:35 AM 68.4 °F - 63.7 °F 85% 30.22 in 10.0 mi Calm Calm - N/A   Clear
8:55 AM 70.0 °F - 64.2 °F 82% 30.23 in 10.0 mi Calm Calm - N/A   Clear
9:15 AM 72.5 °F - 65.5 °F 79% 30.23 in 10.0 mi Calm Calm - N/A   Clear
9:35 AM 74.3 °F - 66.2 °F 76% 30.24 in 10.0 mi Calm Calm - N/A   Clear
9:55 AM 75.6 °F - 65.8 °F 72% 30.23 in 10.0 mi ENE 3.5 mph - N/A   Clear
10:15 AM 77.5 °F - 66.6 °F 69% 30.23 in 10.0 mi Calm Calm - N/A   Clear
10:55 AM 81.5 °F 83.6 °F 66.0 °F 59% 30.22 in 10.0 mi NNE 4.6 mph - N/A   Clear
11:15 AM 82.0 °F 83.9 °F 65.7 °F 57% 30.21 in 10.0 mi Calm Calm - N/A   Clear
11:35 AM 84.0 °F 86.3 °F 66.2 °F 55% 30.20 in 10.0 mi NW 3.5 mph - N/A   Clear
11:55 AM 85.1 °F 87.9 °F 67.3 °F 55% 30.20 in 10.0 mi SSW 5.8 mph - N/A   Clear
12:10 PM 84.7 °F 87.4 °F 67.1 °F 55% 30.20 in 10.0 mi SSW 3.5 mph - N/A   Clear
12:35 PM 86.0 °F 88.2 °F 65.8 °F 51% 30.19 in 10.0 mi South 4.6 mph - N/A   Clear
12:55 PM 85.6 °F 87.6 °F 65.5 °F 51% 30.18 in 10.0 mi WNW 3.5 mph - N/A   Clear
1:15 PM 86.2 °F 89.1 °F 67.1 °F 53% 30.17 in 10.0 mi SSE 4.6 mph - N/A   Clear
1:35 PM 87.1 °F 89.2 °F 66.0 °F 49% 30.16 in 10.0 mi ESE 4.6 mph - N/A   Clear
1:55 PM 86.5 °F 88.1 °F 64.9 °F 48% 30.15 in 10.0 mi Calm Calm - N/A   Clear
2:15 PM 87.6 °F 89.7 °F 65.8 °F 48% 30.14 in 10.0 mi SSE 3.5 mph - N/A   Clear
2:35 PM 87.4 °F 88.8 °F 64.6 °F 46% 30.13 in 10.0 mi SW 4.6 mph - N/A   Clear
2:55 PM 88.5 °F 90.1 °F 64.4 °F 45% 30.12 in 10.0 mi South 5.8 mph - N/A   Clear
3:15 PM 88.2 °F 89.6 °F 64.2 °F 45% 30.12 in 10.0 mi Calm Calm - N/A   Clear
3:35 PM 88.2 °F 89.6 °F 64.6 °F 45% 30.12 in 10.0 mi South 4.6 mph - N/A   Clear
3:55 PM 88.5 °F 90.1 °F 64.9 °F 45% 30.11 in 10.0 mi SSE 4.6 mph - N/A   Clear
4:15 PM 88.5 °F 90.1 °F 64.6 °F 45% 30.11 in 10.0 mi South 3.5 mph - N/A   Clear
4:35 PM 89.2 °F 90.6 °F 63.9 °F 43% 30.11 in 10.0 mi South 4.6 mph - N/A   Clear
4:55 PM 89.1 °F 90.0 °F 63.3 °F 42% 30.10 in 10.0 mi SE 4.6 mph - N/A   Clear
5:15 PM 88.3 °F 89.2 °F 63.5 °F 43% 30.10 in 5.0 mi SSE 5.8 mph - N/A   Haze
5:35 PM 88.2 °F 89.6 °F 64.4 °F 45% 30.10 in 10.0 mi SSE 3.5 mph - N/A   Clear
6:15 PM 85.1 °F 88.2 °F 67.6 °F 56% 30.09 in 10.0 mi SE 3.5 mph - N/A   Clear
6:35 PM 82.6 °F 85.7 °F 68.2 °F 62% 30.09 in 10.0 mi SE 3.5 mph - N/A   Clear
6:55 PM 78.8 °F - 69.4 °F 73% 30.09 in 10.0 mi SE 3.5 mph - N/A   Clear
7:10 PM 75.9 °F - 69.8 °F 81% 30.09 in 10.0 mi SE 3.5 mph - N/A   Clear
7:35 PM 74.5 °F - 67.8 °F 80% 30.09 in 10.0 mi SSE 3.5 mph - N/A   Clear
7:55 PM 73.4 °F - 66.9 °F 80% 30.09 in 10.0 mi SSE 4.6 mph - N/A   Clear
8:15 PM 75.7 °F - 66.4 °F 73% 30.10 in 10.0 mi SSE 3.5 mph - N/A   Clear
8:35 PM 77.4 °F - 65.8 °F 67% 30.10 in 10.0 mi SSE 4.6 mph - N/A   Clear
8:55 PM 77.5 °F - 64.9 °F 65% 30.10 in 10.0 mi South 5.8 mph - N/A   Clear
9:15 PM 77.2 °F - 64.6 °F 65% 30.10 in 10.0 mi SSE 4.6 mph - N/A   Clear
9:35 PM 76.3 °F - 64.4 °F 67% 30.10 in 10.0 mi SSE 5.8 mph - N/A   Clear
9:55 PM 76.1 °F - 63.9 °F 66% 30.10 in 10.0 mi South 6.9 mph - N/A   Clear
10:15 PM 75.9 °F - 63.7 °F 66% 30.10 in 10.0 mi South 6.9 mph - N/A   Clear
10:35 PM 75.4 °F - 63.7 °F 67% 30.10 in 10.0 mi South 6.9 mph - N/A   Clear
10:55 PM 75.0 °F - 63.5 °F 67% 30.10 in 10.0 mi South 5.8 mph - N/A   Clear
11:15 PM 74.3 °F - 63.5 °F 69% 30.10 in 10.0 mi South 5.8 mph - N/A   Clear
11:35 PM 73.8 °F - 63.3 °F 70% 30.10 in 10.0 mi South 4.6 mph - N/A   Clear
11:55 PM 73.4 °F - 63.3 °F 71% 30.09 in 10.0 mi South 5.8 mph - N/A   Clear